• In Czech Republic
  • List of Countries
  • For 7 days
  • Water Temperature
  • Satellite Maps
  • Weather Map
  • Weather Widgets
  • user-avatar
    Login

    Hourly Weather Barakaldo

    Today, 22 October, Monday

    Time Temperature Precipitation Wind Pressure Humidity
    00:00 +16°C° 0 mm 2 mps 761 mmHg 98%
    01:00 +16°C° 0 mm 2 mps 762 mmHg 97%
    02:00 +16°C° 0 mm 2 mps 762 mmHg 97%
    03:00 +16°C° 0 mm 3 mps 762 mmHg 97%
    04:00 +16°C° 0 mm 3 mps 762 mmHg 96%
    05:00 +16°C° 0 mm 3 mps 762 mmHg 96%
    06:00 +16°C° 0 mm 3 mps 762 mmHg 95%
    07:00 +16°C° 0 mm 3 mps 763 mmHg 92%
    08:00 +17°C° 0 mm 3 mps 763 mmHg 89%
    09:00 +17°C° 0 mm 4 mps 763 mmHg 86%
    10:00 +18°C° 0 mm 4 mps 763 mmHg 79%
    11:00 +19°C° 0 mm 4 mps 763 mmHg 72%
    12:00 +20°C° 0 mm 4 mps 764 mmHg 65%
    13:00 +20°C° 0 mm 4 mps 764 mmHg 63%
    14:00 +19°C° 0 mm 4 mps 763 mmHg 62%
    15:00 +19°C° 0 mm 4 mps 763 mmHg 60%
    16:00 +17°C° 0 mm 4 mps 764 mmHg 71%
    17:00 +14°C° 0 mm 3 mps 764 mmHg 81%
    18:00 +12°C° 0 mm 3 mps 765 mmHg 91%
    19:00 +12°C° 0 mm 3 mps 765 mmHg 92%
    20:00 +13°C° 0 mm 2 mps 765 mmHg 94%
    21:00 +13°C° 0 mm 2 mps 766 mmHg 95%
    22:00 +13°C° 0 mm 2 mps 766 mmHg 96%
    23:00 +13°C° 0 mm 2 mps 766 mmHg 97%

    Tomorrow, 23 October, Tuesday

    Time Temperature Precipitation Wind Pressure Humidity
    00:00 +13°C° 0 mm 2 mps 766 mmHg 97%
    01:00 +13°C° 0 mm 2 mps 766 mmHg 97%
    02:00 +13°C° 0 mm 2 mps 766 mmHg 98%
    03:00 +12°C° 0 mm 3 mps 766 mmHg 98%
    04:00 +12°C° 0 mm 3 mps 766 mmHg 97%
    05:00 +12°C° 0 mm 3 mps 766 mmHg 97%
    06:00 +12°C° 0 mm 3 mps 766 mmHg 97%
    07:00 +13°C° 0 mm 3 mps 766 mmHg 91%
    08:00 +14°C° 0 mm 3 mps 766 mmHg 85%
    09:00 +16°C° 0 mm 3 mps 766 mmHg 80%
    10:00 +17°C° 0 mm 3 mps 766 mmHg 73%
    11:00 +19°C° 0 mm 3 mps 766 mmHg 67%
    12:00 +20°C° 0 mm 3 mps 766 mmHg 60%
    13:00 +20°C° 0 mm 3 mps 766 mmHg 62%
    14:00 +19°C° 0 mm 3 mps 765 mmHg 64%
    15:00 +19°C° 0 mm 3 mps 765 mmHg 65%
    16:00 +17°C° 0 mm 3 mps 765 mmHg 75%
    17:00 +14°C° 0 mm 3 mps 765 mmHg 85%
    18:00 +13°C° 0 mm 2 mps 765 mmHg 95%
    19:00 +13°C° 0 mm 2 mps 766 mmHg 96%
    20:00 +13°C° 0 mm 2 mps 766 mmHg 96%
    21:00 +13°C° 0 mm 1 mps 766 mmHg 96%
    22:00 +13°C° 0 mm 1 mps 766 mmHg 96%
    23:00 +13°C° 0 mm 1 mps 766 mmHg 96%

    Day after tomorrow, 24 October, Wednesday

    Time Temperature Precipitation Wind Pressure Humidity
    00:00 +13°C° 0 mm 1 mps 766 mmHg 96%
    01:00 +13°C° 0 mm 1 mps 766 mmHg 97%
    02:00 +12°C° 0 mm 1 mps 766 mmHg 97%
    03:00 +12°C° 0 mm 1 mps 766 mmHg 97%
    04:00 +12°C° 0 mm 1 mps 765 mmHg 97%
    05:00 +11°C° 0 mm 1 mps 765 mmHg 97%
    06:00 +11°C° 0 mm 1 mps 765 mmHg 97%
    07:00 +13°C° 0 mm 1 mps 765 mmHg 91%
    08:00 +14°C° 0 mm 1 mps 765 mmHg 86%
    09:00 +15°C° 0 mm 1 mps 765 mmHg 80%
    10:00 +17°C° 0 mm 2 mps 765 mmHg 69%
    11:00 +19°C° 0 mm 2 mps 764 mmHg 57%
    12:00 +20°C° 0 mm 3 mps 764 mmHg 45%
    13:00 +20°C° 0 mm 3 mps 763 mmHg 45%
    14:00 +20°C° 0 mm 3 mps 763 mmHg 45%
    15:00 +20°C° 0 mm 3 mps 762 mmHg 45%
    16:00 +17°C° 0 mm 2 mps 762 mmHg 57%
    17:00 +15°C° 0 mm 2 mps 762 mmHg 68%
    18:00 +13°C° 0 mm 2 mps 762 mmHg 79%
    19:00 +12°C° 0 mm 1 mps 762 mmHg 81%
    20:00 +11°C° 0 mm 1 mps 762 mmHg 83%
    21:00 +11°C° 0 mm 1 mps 762 mmHg 85%
    22:00 +11°C° 0 mm 1 mps 762 mmHg 83%
    23:00 +11°C° 0 mm 1 mps 761 mmHg 81%

    25 October, Thursday

    Time Temperature Precipitation Wind Pressure Humidity
    00:00 +11°C° 0 mm 1 mps 761 mmHg 79%
    01:00 +11°C° 0 mm 1 mps 761 mmHg 78%
    02:00 +11°C° 0 mm 1 mps 760 mmHg 77%
    03:00 +11°C° 0 mm 1 mps 760 mmHg 76%
    04:00 +11°C° 0 mm 1 mps 760 mmHg 75%
    05:00 +11°C° 0 mm 1 mps 759 mmHg 75%
    06:00 +11°C° 0 mm 1 mps 759 mmHg 75%
    07:00 +13°C° 0 mm 1 mps 759 mmHg 68%
    08:00 +15°C° 0 mm 1 mps 759 mmHg 61%
    09:00 +18°C° 0 mm 1 mps 759 mmHg 54%
    10:00 +21°C° 0 mm 1 mps 758 mmHg 48%
    11:00 +23°C° 0 mm 1 mps 758 mmHg 42%
    12:00 +25°C° 0 mm 1 mps 758 mmHg 36%
    13:00 +25°C° 0 mm 1 mps 757 mmHg 36%
    14:00 +26°C° 0 mm 2 mps 757 mmHg 36%
    15:00 +26°C° 0 mm 2 mps 756 mmHg 35%
    16:00 +23°C° 0 mm 1 mps 756 mmHg 48%
    17:00 +20°C° 0 mm 1 mps 756 mmHg 61%
    18:00 +16°C° 0 mm 1 mps 756 mmHg 73%
    19:00 +15°C° 0 mm 1 mps 756 mmHg 73%
    20:00 +15°C° 0 mm 1 mps 756 mmHg 73%
    21:00 +15°C° 0 mm 1 mps 756 mmHg 72%
    22:00 +15°C° 0 mm 1 mps 756 mmHg 68%
    23:00 +15°C° 0 mm 1 mps 755 mmHg 64%

    26 October, Friday

    Time Temperature Precipitation Wind Pressure Humidity
    00:00 +15°C° 0 mm 2 mps 755 mmHg 59%
    01:00 +15°C° 0 mm 2 mps 755 mmHg 58%
    02:00 +14°C° 0 mm 2 mps 755 mmHg 57%
    03:00 +14°C° 0 mm 2 mps 754 mmHg 56%
    04:00 +14°C° 0 mm 2 mps 754 mmHg 56%
    05:00 +13°C° 0 mm 2 mps 754 mmHg 56%
    06:00 +12°C° 0 mm 3 mps 754 mmHg 56%
    07:00 +13°C° 0 mm 3 mps 754 mmHg 56%
    08:00 +16°C° 0 mm 3 mps 754 mmHg 56%
    09:00 +17°C° 0 mm 3 mps 754 mmHg 57%
    10:00 +19°C° 0 mm 4 mps 754 mmHg 57%
    11:00 +20°C° 0 mm 4 mps 754 mmHg 57%
    12:00 +21°C° 0 mm 5 mps 754 mmHg 57%
    13:00 +21°C° 0.1 mm 5 mps 754 mmHg 60%
    14:00 +20°C° 0.1 mm 5 mps 753 mmHg 64%
    15:00 +20°C° 0.1 mm 5 mps 753 mmHg 67%
    16:00 +17°C° 0.6 mm 5 mps 753 mmHg 76%
    17:00 +16°C° 0.6 mm 5 mps 753 mmHg 85%
    18:00 +14°C° 0.6 mm 5 mps 753 mmHg 94%
    19:00 +14°C° 1.4 mm 5 mps 754 mmHg 94%
    20:00 +13°C° 1.4 mm 6 mps 755 mmHg 95%
    21:00 +13°C° 1.4 mm 6 mps 755 mmHg 96%
    22:00 +12°C° 1.3 mm 7 mps 756 mmHg 96%
    23:00 +11°C° 1.3 mm 7 mps 756 mmHg 96%

    27 October, Saturday

    Time Temperature Precipitation Wind Pressure Humidity
    00:00 +11°C° 1.3 mm 8 mps 756 mmHg 95%
    01:00 +10°C° 0.3 mm 7 mps 757 mmHg 93%
    02:00 +9°C° 0.3 mm 6 mps 757 mmHg 91%
    03:00 +9°C° 0.3 mm 6 mps 757 mmHg 89%
    04:00 +9°C° 0.3 mm 6 mps 757 mmHg 89%
    05:00 +9°C° 0.3 mm 6 mps 757 mmHg 89%
    06:00 +9°C° 0.3 mm 6 mps 757 mmHg 89%
    07:00 +9°C° 0.5 mm 7 mps 756 mmHg 87%
    08:00 +10°C° 0.5 mm 7 mps 756 mmHg 84%
    09:00 +10°C° 0.5 mm 8 mps 756 mmHg 82%
    10:00 +10°C° 0.6 mm 9 mps 755 mmHg 82%
    11:00 +10°C° 0.6 mm 9 mps 755 mmHg 83%
    12:00 +9°C° 0.6 mm 10 mps 754 mmHg 83%
    13:00 +8°C° 1.4 mm 10 mps 753 mmHg 84%
    14:00 +8°C° 1.4 mm 10 mps 752 mmHg 84%
    15:00 +8°C° 1.4 mm 10 mps 752 mmHg 85%
    16:00 +7°C° 1.5 mm 9 mps 751 mmHg 87%
    17:00 +7°C° 1.5 mm 9 mps 751 mmHg 89%
    18:00 +6°C° 1.5 mm 8 mps 751 mmHg 91%
    19:00 +6°C° 1.2 mm 8 mps 751 mmHg 91%
    20:00 +6°C° 1.2 mm 7 mps 751 mmHg 91%
    21:00 +6°C° 1.2 mm 7 mps 750 mmHg 91%
    22:00 +5°C° 0.9 mm 7 mps 750 mmHg 92%
    23:00 +5°C° 0.9 mm 6 mps 750 mmHg 92%

    28 October, Sunday

    Time Temperature Precipitation Wind Pressure Humidity
    00:00 +4°C° 0.9 mm 6 mps 750 mmHg 93%
    01:00 +4°C° 0.6 mm 6 mps 750 mmHg 94%
    02:00 +5°C° 0.6 mm 5 mps 750 mmHg 94%
    03:00 +5°C° 0.6 mm 5 mps 749 mmHg 94%
    04:00 +5°C° 0.5 mm 5 mps 750 mmHg 94%
    05:00 +5°C° 0.5 mm 5 mps 750 mmHg 95%
    06:00 +3°C° 0.5 mm 5 mps 750 mmHg 95%
    07:00 +5°C° 1.7 mm 5 mps 750 mmHg 94%
    08:00 +4°C° 1.7 mm 6 mps 750 mmHg 93%
    09:00 +5°C° 1.7 mm 6 mps 751 mmHg 92%
    10:00 +5°C° 1.1 mm 6 mps 751 mmHg 90%
    11:00 +7°C° 1.1 mm 6 mps 751 mmHg 89%
    12:00 +8°C° 1.1 mm 5 mps 751 mmHg 88%
    13:00 +8°C° 1 mm 5 mps 751 mmHg 88%
    14:00 +7°C° 1 mm 5 mps 751 mmHg 88%
    15:00 +7°C° 1 mm 5 mps 751 mmHg 88%
    16:00 +7°C° 0.8 mm 5 mps 752 mmHg 90%
    17:00 +6°C° 0.8 mm 5 mps 752 mmHg 93%
    18:00 +5°C° 0.8 mm 5 mps 753 mmHg 95%
    19:00 +5°C° 0.5 mm 5 mps 753 mmHg 95%
    20:00 +5°C° 0.5 mm 5 mps 753 mmHg 95%
    21:00 +5°C° 0.5 mm 5 mps 754 mmHg 95%
    22:00 +5°C° 0.7 mm 5 mps 754 mmHg 95%
    23:00 +5°C° 0.7 mm 5 mps 754 mmHg 95%
    Show more